Home   Weather   Keratsini   Past weeks

Flag for Greece Past Weather in Keratsini, Greece — Yesterday and Last 2 Weeks

Now
59 °F

Clear.


Feels Like: 60 °F
Forecast: 53 / 69 °F
Wind: 3 mph from North

Location: Elefsis Airport

Current Time: Apr 23, 2017 at 9:26:20 pm

Latest Report: Apr 23, 2017 at 8:50 pm


Visibility: 10 mi

Pressure: 30.07 "Hg

Humidity: 59%

Dew Point: 45 °F

Location of KeratsiniLocation

Past Weather in Keratsini — Graph

°F

Keratsini Temperature Yesterday

Maximum temperature yesterday: 63 °F (at 2:20 pm)
Minimum temperature yesterday: 48 °F (at 10:50 pm)
Average temperature yesterday: 55 °F

High & Low Weather Summary for the Past Weeks

 TemperatureHumidityPressure
High82 °F (Apr 12, 1:20 pm)94% (Apr 18, 12:50 am)30.24 "Hg (Apr 18, 12:50 am)
Low43 °F (Apr 23, 3:50 am)19% (Apr 12, 1:20 pm)29.74 "Hg (Apr 13, 5:20 pm)
Average60 °F54%29.97 "Hg
* Reported Apr 8 8:20 pm — Apr 23 8:20 pm, Keratsini, Weather by CustomWeather, © 2017

Note: Actual official high and low records may vary slightly from our data, if they occured in-between our weather recording intervals... More about our weather records

Advertising

Keratsini Weather History for the Previous 24 Hours

Scroll right to see more
 ConditionsComfort  
Time TempWeatherWind HumidityBarometerVisibility
8:20 pm
Sun, Apr 23
61 °FClear.5 mph55%30.07 "Hg10 mi
7:50 pm63 °FPassing clouds.6 mph52%30.04 "HgN/A
7:20 pm63 °FSunny.7 mph49%30.04 "Hg10 mi
6:50 pm64 °FPassing clouds.9 mph46%30.04 "HgN/A
5:50 pm66 °FPassing clouds.12 mph43%30.01 "HgN/A
5:20 pm66 °FPassing clouds.12 mph35%30.01 "HgN/A
4:50 pm68 °FPassing clouds.12 mph26%30.01 "HgN/A
4:20 pm70 °FPassing clouds.14 mph23%30.01 "HgN/A
3:50 pm70 °FPassing clouds.12 mph25%30.01 "HgN/A
2:50 pm70 °FPassing clouds.12 mph23%30.01 "HgN/A
2:20 pm70 °FPassing clouds.14 mph23%30.01 "HgN/A
1:50 pm68 °FPassing clouds.9 mph24%30.04 "HgN/A
1:20 pm66 °FPassing clouds.9 mph28%30.04 "HgN/A
12:50 pm68 °FPassing clouds.12 mph23%30.04 "HgN/A
12:20 pm66 °FPassing clouds.9 mph28%30.04 "HgN/A
11:50 am64 °FPassing clouds.10 mph24%30.04 "HgN/A
11:20 am64 °FSunny.7 mph24%30.04 "Hg10 mi
10:50 am63 °FSunny.9 mph25%30.04 "Hg10 mi
10:20 am63 °FSunny.5 mph37%30.04 "Hg10 mi
9:50 am59 °FSunny.5 mph42%30.04 "Hg10 mi
9:20 am57 °FSunny.6 mph44%30.04 "Hg10 mi
8:50 am55 °FSunny.5 mph44%30.04 "Hg10 mi
8:20 am54 °FSunny.No wind47%30.01 "Hg10 mi
7:50 am50 °FSunny.No wind58%30.01 "Hg10 mi
7:20 am46 °FSunny.No wind66%30.01 "Hg10 mi
6:20 am43 °FPassing clouds.6 mph71%30.01 "HgN/A
5:50 am48 °FPassing clouds.5 mph58%29.98 "HgN/A
5:20 am45 °FPassing clouds.5 mph66%29.98 "HgN/A
4:50 am45 °FPassing clouds.6 mph71%29.98 "HgN/A
4:20 am43 °FPassing clouds.3 mph76%29.98 "HgN/A
3:50 am43 °FPassing clouds.No wind81%29.98 "HgN/A
3:20 am45 °FPassing clouds.No wind71%29.98 "HgN/A
2:20 am45 °FPassing clouds.3 mph76%29.98 "HgN/A
1:50 am45 °FPassing clouds.3 mph76%30.01 "HgN/A
1:20 am45 °FPassing clouds.3 mph76%30.01 "HgN/A
12:50 am46 °FPassing clouds.2 mph66%30.01 "HgN/A
12:20 am48 °FPassing clouds.3 mph66%30.01 "HgN/A
11:50 pm
Sat, Apr 22
48 °FPassing clouds.5 mph66%30.01 "HgN/A
11:20 pm48 °FPassing clouds.3 mph71%30.01 "HgN/A
10:50 pm48 °FPassing clouds.3 mph71%30.01 "HgN/A
10:20 pm50 °FPassing clouds.No wind71%30.01 "HgN/A
9:20 pm52 °FPassing clouds.3 mph67%30.01 "HgN/A
Weather by CustomWeather, © 2017

See weather overviewHow to use our weather pages